BREEZE-M DEB, 38624

Orbit data source: Space-Track

BREEZE-M DEB, 38624 is space debris in HEO originally from a launch on Fri, 14 Mar 2008 UTC launched from the Tyuratam Missile And Space Complex (TTMTR). Debris objects in space refer to the collection of defunct objects orbiting the Earth. Examples of debris include non-operational satellites, rocket bodies, and fragments generated from explosions, collisions, or faulty payload assembly.

Loading next visibility...
Identifier
38624, 2008-011BX
Orbit
HEO
Country
Flag of CISCIS
Related business
Manufacturer
Unknown
Mission
Spacecraft
Bus & Motor
Unknown
Mass
Unknown
Launch date (UTC)
2008-03-14 (18 years ago)
Launch vehicle
Unknown
Launch site
Tyuratam Missile And Space Complex (TTMTR)
Object type
Payload
Rocket body
Debris
Shape & HBR
Unknown shape, 0.2 m
Radar Cross Section
Medium (>0.1 m² and <1 m²)

Expand to show TLE details & history
Last TLE update: 3 days ago

TLE from 3 days ago
0 BREEZE-M DEB
1 38624U 08011BX  26171.16105596  .00000259  00000-0  10806-2 0  9996
2 38624  48.3402 186.3114 6472121  60.9263 348.3909  3.16251518167449
Epoch: 2026-06-20T03:51Z
TLE epoch observation values (Epoch: 2026-06-20T03:51:55.234Z)
Latitude
-0.0002°
Longitude
-140.06627°
Altitude
2,278.521 km
Speed
8.472 km/s
True Right ascension
12h 25m 10s
True Declination
0° 00' 01"
Sunlit
Object was in daylight at epoch
Visualization orbit readout
Latitude
Unknown
Longitude
Unknown
Altitude
Unknown
Speed
Unknown
Apparent Right ascension
Unknown
Apparent Declination
Unknown
Sunlit
N/A
Visualization observer readout
Local Sidereal Time
13:58:31
Azimuth
Unknown
Elevation
Unknown
Doppler factor
Unknown
Orbital elements
Apogee altitude
25,917.821 km
Perigee altitude
538.776 km
Semi-major axis
19,606.435 km
Eccentricity
0.64721
Inclination
48.3402°
RAAN
186.3114°
Arg. of periapsis
60.9263°
True anomaly
299.26845°
Mean anomaly
348.3909°
Eccentric anomaly
329.65863°
Mean motion
0.79058 °/min
Orbital period
455.36 mins
BSTAR
0.0010806
Loading maneuver chart data...
Computing Atmospheric mass density...
Loading historical data...
Loading historical data...
Loading historical data...
Loading historical data...
Loading historical data...
Loading historical data...
Loading historical data...

Documentation

Showing up to 5 results
|